Lafayette, LA

11:59 PM CST on December 10, 2017 (GMT -0600)
Lafayette Regional

Weather History for KLFT - June, 2013

Change the Weather History Date:

Tuesday, June 4, 2013

  Actual Average Record
Temperature  
Mean Temperature 84 °F 80 °F  
Max Temperature 94 °F 90 °F 98 °F (2011)
Min Temperature 73 °F 71 °F 55 °F (1919)
Cooling Degree Days 19 15  
Month to date cooling degree days 70 60  
Year to date cooling degree days 534 674  
Since 1 June cooling degree days 70 60  
Growing Degree Days 33 (Base 50)    
Moisture  
Dew Point 71 °F    
Average Humidity 67    
Maximum Humidity 87    
Minimum Humidity 46    
Precipitation  
Precipitation 0.00 in 0.21 in 2.83 in (1996)
Month to date precipitation 0.07 0.81  
Year to date precipitation 32.19 23.43  
Sea Level Pressure  
Sea Level Pressure 29.89 in    
Wind  
Wind Speed 2 mph (NE)    
Max Wind Speed 8 mph    
Max Gust Speed 12 mph    
Visibility 10 miles    
Events      
T = Trace of Precipitation, MM = Missing Value Source: NWS Daily Summary

Daily Weather History Graph

Daily Weather History Graph

Search for Another Location

Airport or City:

Trip Planner

Search our weather history database for the weather conditions in past years. The results will help you decide how hot, cold, wet, or windy it might be!

Date:

Astronomy

Jun. 04, 2013 Rise Set
Actual Time 6:06 AM CDT 8:06 PM CDT
Civil Twilight 5:39 AM CDT 8:33 PM CDT
Nautical Twilight 5:05 AM CDT 9:07 PM CDT
Astronomical Twilight 4:30 AM CDT 9:42 PM CDT
Moon 3:22 AM CDT (6/4) 4:47 PM CDT (6/4)
Length of Visible Light 14h 54m
Length of Day
14h 00m
Waning Crescent, 14% of the Moon is Illuminated
Jun 4
Waning Crescent
Jun 8
New
Jun 16
First Quarter
Jun 23
Full
Jun 29
Last Quarter

Hourly Weather History & Observations

Time (CDT) Temp. Heat Index Dew Point Humidity Pressure Visibility Wind Dir Wind Speed Gust Speed Precip Events Conditions
12:53 AM 78.1 °F - 70.0 °F 76% 29.89 in 10.0 mi Calm Calm - N/A   Mostly Cloudy
1:53 AM 75.9 °F - 70.0 °F 82% 29.88 in 10.0 mi Calm Calm - N/A   Partly Cloudy
2:53 AM 75.0 °F - 70.0 °F 84% 29.88 in 10.0 mi North 4.6 mph - N/A   Scattered Clouds
3:53 AM 75.9 °F - 70.0 °F 82% 29.88 in 10.0 mi NNW 4.6 mph - N/A   Mostly Cloudy
4:53 AM 75.0 °F - 70.0 °F 84% 29.90 in 10.0 mi North 3.5 mph - N/A   Scattered Clouds
5:53 AM 73.0 °F - 69.1 °F 87% 29.90 in 10.0 mi Calm Calm - N/A   Clear
6:53 AM 73.9 °F - 70.0 °F 87% 29.90 in 10.0 mi Calm Calm - N/A   Partly Cloudy
7:53 AM 75.9 °F - 71.1 °F 85% 29.90 in 10.0 mi SE 3.5 mph - N/A   Clear
8:53 AM 80.1 °F 83.8 °F 72.0 °F 76% 29.92 in 10.0 mi Calm Calm - N/A   Clear
9:53 AM 84.9 °F 90.7 °F 72.0 °F 65% 29.93 in 10.0 mi Calm Calm - N/A   Clear
10:53 AM 89.1 °F 95.0 °F 71.1 °F 55% 29.93 in 10.0 mi NE 4.6 mph - N/A   Clear
11:53 AM 89.1 °F 94.1 °F 70.0 °F 53% 29.93 in 10.0 mi Calm Calm - N/A   Mostly Cloudy
12:53 PM 90.0 °F 96.4 °F 71.1 °F 54% 29.92 in 10.0 mi North 4.6 mph - N/A   Scattered Clouds
1:53 PM 91.9 °F 97.4 °F 70.0 °F 48% 29.91 in 10.0 mi Calm Calm - N/A   Clear
2:53 PM 93.0 °F 99.0 °F 70.0 °F 47% 29.88 in 10.0 mi Variable 3.5 mph - N/A   Clear
3:53 PM 91.9 °F 95.9 °F 68.0 °F 45% 29.86 in 10.0 mi ENE 4.6 mph - N/A   Clear
4:53 PM 91.9 °F 96.9 °F 69.1 °F 47% 29.84 in 10.0 mi Variable 3.5 mph - N/A   Partly Cloudy
5:53 PM 91.0 °F 97.6 °F 71.1 °F 52% 29.83 in 10.0 mi Variable 3.5 mph - N/A   Clear
6:53 PM 90.0 °F 96.4 °F 71.1 °F 54% 29.84 in 10.0 mi East 3.5 mph - N/A   Partly Cloudy
7:53 PM 86.0 °F 93.0 °F 73.0 °F 65% 29.85 in 10.0 mi SE 3.5 mph - N/A   Clear
8:53 PM 82.9 °F 88.8 °F 73.0 °F 72% 29.87 in 10.0 mi Calm Calm - N/A   Mostly Cloudy
9:53 PM 82.0 °F 87.9 °F 73.9 °F 76% 29.89 in 10.0 mi Calm Calm - N/A   Partly Cloudy
10:53 PM 81.0 °F 86.7 °F 75.0 °F 82% 29.91 in 10.0 mi SSE 3.5 mph - N/A   Clear
11:53 PM 80.1 °F 84.5 °F 73.9 °F 81% 29.91 in 10.0 mi Calm Calm - N/A   Scattered Clouds